Showing default

ARVAKER-3, 64566

Orbit data source: Space-Track

ARVAKER-3, 64566 is a payload satellite owned by NSC (NO) in SSO that was launched on Mon, 23 Jun 2025 UTC via an FALCON 9 launch vehicle from the Air Force Western Test Range (AFWTR). Payload-class satellites include a variety of spacecraft equipped with specific instruments for various scientific and technological missions. These include communications satellites like Starlink; space stations such as the ISS; scientific satellites like the Hubble; Earth observation satellites from companies like Planet Labs, Umbra, and HawkEye 360; GPS; miniature CubeSats for education and research; and military/defense satellites.

Loading next visibility...
Identifier
64566, 2025-135AQ
Orbit
SSO
Country
Flag of NONO / NOR
Related business
Manufacturer
NanoAvionics
Mission
Operational Commercial Imaging
Bus & Motor
MP42, Unknown motor
Mass
~100 kg wet, ~100 kg dry
Launch date (UTC)
2025-06-23 (5 months ago)
Launch vehicle
FALCON 9
Launch site
Air Force Western Test Range (AFWTR)
Object type
Payload
Rocket body
Debris
Shape & HBR
Box + 2 Pan, 0.5 m
Radar Cross Section
0.146 m², Medium (>0.1 m² and < 1m²)

Expand to show TLE details & history
Last TLE update: 10 hours ago

TLE from 10 hours ago
0 ARVAKER-3
1 64566U 25135AQ  25340.95471016  .00004921  00000-0  48623-3 0  9992
2 64566  97.7602  92.5987 0001362 180.4153 179.7065 14.92381446 25198
Epoch: 2025-12-06T22:54Z
TLE epoch observation values (Epoch: 2025-12-06T22:54:46.957Z)
Latitude
-0.00006°
Longitude
32.92802°
Altitude
594.504 km
Speed
7.562 km/s
True Right ascension
06h 10m 23s
True Declination
0° 00' 00"
Sunlit
Object was in full shadow at epoch
Visualization orbit readout
Latitude
Unknown
Longitude
Unknown
Altitude
Unknown
Speed
Unknown
Apparent Right ascension
Unknown
Apparent Declination
Unknown
Sunlit
N/A
Visualization observer readout
Local Sidereal Time
06:39:55
Azimuth
Unknown
Elevation
Unknown
Doppler factor
Unknown
Orbital elements
Apogee altitude
588.479 km
Perigee altitude
586.582 km
Semi-major axis
6,965.667 km
Eccentricity
0.00014
Inclination
97.7602°
RAAN
92.5987°
Arg. of periapsis
180.4153°
True anomaly
179.70658°
Mean anomaly
179.7065°
Eccentric anomaly
179.70654°
Mean motion
3.73335 °/min
Orbital period
96.43 mins
BSTAR
0.00048623
Loading maneuver chart data...
Computing Atmospheric mass density...
Loading historical data...
Loading historical data...
Loading historical data...
Loading historical data...
Loading historical data...
Loading historical data...
Loading historical data...

Documentation

Showing up to 5 results
|